Location: Chervonnoye
(48.6000°N, 34.4000°E)
Time: 07:29:44
(UTC+00:00)

Nadezhda 1 Rocket - Pass Details

Date: 25 April 2021
Orbit: 940 x 1006 km, 83.0° (Epoch: 13 May)

Event Time Altitude Azimuth Distance (km) Brightness Sun altitude
Exits shadow 23:33:38 14° 274° (W) 2,502 5.9 -23.0°
Maximum altitude 23:36:05 17° 301° (WNW) 2,309 5.9 -22.8°
Drops below altitude 10° 23:40:03 10° 340° (NNW) 2,770 6.8 -22.4°
Sets 23:43:40 0° 360° (N) 3,712 8.0 -22.1°
